Regional Weather Roundup
Issued by NWS

Home | Current Version | Previous Version | Graphics & Text | Print | Product List | Glossary On
Versions: 1 2 3 4 5 6 7 8 9 10 11 12 13 14 15 16 17 18 19 20 21 22 23 24 25 26 27 28 29 30 31 32 33 34 35 36 37 38 39 40 41 42 43 44 45 46 47 48 49 50
000
ASUS43 KLOT 192158
RWRIL

ILLINOIS REGIONAL WEATHER ROUNDUP
NATIONAL WEATHER SERVICE CHICAGO/ROMEOVILLE IL
500 PM CDT FRI SEP 19 2014

NOTE: "FAIR" INDICATES FEW OR NO CLOUDS BELOW 12,000 FEET WITH NO
SIGNIFICANT WEATHER AND/OR OBSTRUCTIONS TO VISIBILITY.

* THESE STATIONS ARE NOT UNDER NWS QUALITY CONTROL. THEY ALSO MAY NOT
  REPORT WEATHER SUCH AS PRECIPITATION OR FOG.

ILZ001-002-007-009-015-016-024-192300-
NORTHWEST ILLINOIS

CITY           SKY/WX    TMP DP  RH WIND       PRES   REMARKS
MOLINE         SUNNY     76  53  44 S10       29.96F
$$

ILZ003-004-008-010-011-017-018-192300-
NORTH CENTRAL ILLINOIS

CITY           SKY/WX    TMP DP  RH WIND       PRES   REMARKS
ROCKFORD       NOT AVBL
$$

ILZ005-006-012>014-019>023-192300-
NORTHEAST ILLINOIS

CITY           SKY/WX    TMP DP  RH WIND       PRES   REMARKS
CHICAGO-OHARE  PTSUNNY   78  43  28 S20       30.01F
CHICAGO-MIDWAY PTSUNNY   76  44  32 S14       30.02S
AURORA         SUNNY     74  45  35 S14G22    30.00F
WAUKEGAN       SUNNY     72  44  36 S17       29.98F
DUPAGE AIRPORT SUNNY     74  46  36 S15       30.00F
WHEELING       SUNNY     74  43  32 S16       30.02F
NORTHERLY ISL    N/A     73  44  35 S10         N/A
$$

LMZ740>746-192300-
SOUTHERN LAKE MICHIGAN

STATION/POSITION SKY/WX   TEMP    WIND        PRES    VSBY  WAVE
                          AIR SEA DIR/SP/G                  HT/PER
                          (F)     (DEG/KT/KT) (MB)    (MI)  (FT/S)
SOUTHERN BUOY              65 65  160/ 14/ 16 1017.1F         3/ 5
WAUKEGAN HARBOR            67     160/ 17/ 19   N/A
HARRISON CRIB              69     160/ 18/ 21   N/A
BURNHAM HARBOR             73     160/ 11/ 17   N/A
CALUMET HARBOR             74     180/  8/ 14 1015.6F
MICHIGAN CITY              71     120/ 12/ 17   N/A
MICHIGAN CITY 6N           70 65  150/ 10/ 12   N/A           1/ 2
ST. JOSEPH                 69 66  150/ 12/ 16   N/A           2/ 3
$$

ILZ025>027-034>036-040-047-049-050-058-095>099-192300-
WEST-CENTRAL ILLINOIS

CITY           SKY/WX    TMP DP  RH WIND       PRES   REMARKS
$$

ILZ028>032-037-038-041>044-048-051>054-059>061-192300-
CENTRAL ILLINOIS

CITY           SKY/WX    TMP DP  RH WIND       PRES   REMARKS
PEORIA         NOT AVBL
SPRINGFIELD    NOT AVBL
TAYLORVILLE    NOT AVBL
$$

ILZ033-039-045-046-055>057-062-063-192300-
EAST-CENTRAL ILLINOIS

CITY           SKY/WX    TMP DP  RH WIND       PRES   REMARKS
$$

ILZ079-100>102-192300-
SOUTHWEST ILLINOIS

CITY           SKY/WX    TMP DP  RH WIND       PRES   REMARKS
ALTON          MOSUNNY   77  54  44 S12       30.02F
CAHOKIA*       SUNNY     80  58  46 SE6       30.01F HX  80
$$

ILZ064>066-069>071-074>076-080>082-084>086-088>090-092>094-192300-
SOUTH-CENTRAL ILLINOIS

CITY           SKY/WX    TMP DP  RH WIND       PRES   REMARKS
CARBONDALE     SUNNY     79  58  48 CALM      30.02S HX  80
$$

ILZ067-068-072-073-078-083-087-091-192300-
SOUTHEAST ILLINOIS

CITY           SKY/WX    TMP DP  RH WIND       PRES   REMARKS
$$

ABBREVIATIONS USED IN REMARKS
   TC - TEMPERATURE IN CELSIUS
  WCI - WIND CHILL INDEX
   HX - HEAT INDEX
  VSB - VISIBILITY
$$




USA.gov is the U.S. government's official web portal to all federal, state and local government web resources and services.